When you browse on this site, cookies collect data to enhance your experience and personalize the content and advertising you see.
Visit our Privacy Policy to learn more. By continuing to use the site, you agree to this use of cookies and data.
  • In Hungary
  • List of Countries
  • For 7 days
  • Water Temperature
  • Satellite Maps
  • Weather Map
  • News
  • Weather Widgets
  • user-avatar
    Login

    Hourly Weather Kokrobite

    Today, 21 February, Thursday

    Time Temperature Precipitation Wind Pressure Humidity
    00:00 +30°C° 0 mm 3 mps 757 mmHg 77%
    01:00 +30°C° 0 mm 4 mps 757 mmHg 78%
    02:00 +30°C° 0 mm 4 mps 757 mmHg 79%
    03:00 +29°C° 0 mm 4 mps 756 mmHg 79%
    04:00 +29°C° 0 mm 4 mps 756 mmHg 80%
    05:00 +29°C° 0 mm 4 mps 756 mmHg 81%
    06:00 +29°C° 0 mm 4 mps 757 mmHg 83%
    07:00 +30°C° 0 mm 4 mps 757 mmHg 77%
    08:00 +32°C° 0 mm 4 mps 757 mmHg 71%
    09:00 +33°C° 0 mm 4 mps 757 mmHg 66%
    10:00 +35°C° 0 mm 4 mps 757 mmHg 60%
    11:00 +36°C° 0 mm 4 mps 757 mmHg 54%
    12:00 +37°C° 0 mm 5 mps 757 mmHg 49%
    13:00 +37°C° 0 mm 5 mps 756 mmHg 50%
    14:00 +37°C° 0 mm 5 mps 756 mmHg 52%
    15:00 +38°C° 0 mm 6 mps 755 mmHg 53%
    16:00 +35°C° 0 mm 6 mps 755 mmHg 58%
    17:00 +34°C° 0 mm 7 mps 755 mmHg 63%
    18:00 +33°C° 0 mm 7 mps 755 mmHg 68%
    19:00 +32°C° 0.1 mm 7 mps 756 mmHg 71%
    20:00 +32°C° 0.1 mm 6 mps 757 mmHg 74%
    21:00 +30°C° 0.1 mm 6 mps 757 mmHg 77%
    22:00 +30°C° 0 mm 6 mps 757 mmHg 78%
    23:00 +30°C° 0 mm 6 mps 758 mmHg 79%

    Tomorrow, 22 February, Friday

    Time Temperature Precipitation Wind Pressure Humidity
    00:00 +30°C° 0 mm 5 mps 758 mmHg 80%
    01:00 +30°C° 0 mm 5 mps 758 mmHg 80%
    02:00 +29°C° 0 mm 5 mps 757 mmHg 81%
    03:00 +29°C° 0 mm 5 mps 757 mmHg 81%
    04:00 +29°C° 0 mm 4 mps 757 mmHg 82%
    05:00 +29°C° 0 mm 4 mps 757 mmHg 83%
    06:00 +29°C° 0 mm 4 mps 756 mmHg 85%
    07:00 +30°C° 0 mm 4 mps 757 mmHg 79%
    08:00 +32°C° 0 mm 4 mps 757 mmHg 73%
    09:00 +33°C° 0 mm 5 mps 758 mmHg 68%
    10:00 +34°C° 0 mm 5 mps 757 mmHg 65%
    11:00 +35°C° 0 mm 5 mps 757 mmHg 62%
    12:00 +35°C° 0 mm 5 mps 757 mmHg 59%
    13:00 +36°C° 0.1 mm 5 mps 756 mmHg 58%
    14:00 +36°C° 0.1 mm 5 mps 755 mmHg 57%
    15:00 +36°C° 0.1 mm 5 mps 755 mmHg 56%
    16:00 +35°C° 0.1 mm 5 mps 755 mmHg 61%
    17:00 +34°C° 0.1 mm 6 mps 755 mmHg 66%
    18:00 +33°C° 0.1 mm 6 mps 755 mmHg 71%
    19:00 +32°C° 0 mm 6 mps 756 mmHg 74%
    20:00 +32°C° 0 mm 6 mps 756 mmHg 76%
    21:00 +30°C° 0 mm 6 mps 757 mmHg 79%
    22:00 +30°C° 0.1 mm 6 mps 757 mmHg 80%
    23:00 +30°C° 0.1 mm 6 mps 757 mmHg 80%

    Day after tomorrow, 23 February, Saturday

    Time Temperature Precipitation Wind Pressure Humidity
    00:00 +30°C° 0.1 mm 6 mps 757 mmHg 81%
    01:00 +30°C° 0 mm 5 mps 756 mmHg 81%
    02:00 +30°C° 0 mm 5 mps 756 mmHg 82%
    03:00 +29°C° 0 mm 4 mps 755 mmHg 83%
    04:00 +29°C° 0 mm 4 mps 755 mmHg 82%
    05:00 +29°C° 0 mm 4 mps 755 mmHg 82%
    06:00 +29°C° 0 mm 4 mps 755 mmHg 82%
    07:00 +30°C° 0.7 mm 4 mps 756 mmHg 78%
    08:00 +32°C° 0.7 mm 4 mps 757 mmHg 73%
    09:00 +33°C° 0.7 mm 4 mps 757 mmHg 69%
    10:00 +34°C° 0 mm 4 mps 757 mmHg 65%
    11:00 +35°C° 0 mm 5 mps 757 mmHg 61%
    12:00 +36°C° 0 mm 5 mps 756 mmHg 57%
    13:00 +35°C° 0.6 mm 5 mps 756 mmHg 58%
    14:00 +35°C° 0.6 mm 5 mps 755 mmHg 58%
    15:00 +35°C° 0.6 mm 5 mps 754 mmHg 59%
    16:00 +34°C° 0.3 mm 5 mps 754 mmHg 62%
    17:00 +33°C° 0.3 mm 5 mps 754 mmHg 66%
    18:00 +32°C° 0.3 mm 4 mps 754 mmHg 69%
    19:00 +32°C° 0 mm 4 mps 755 mmHg 71%
    20:00 +30°C° 0 mm 4 mps 756 mmHg 73%
    21:00 +30°C° 0 mm 4 mps 756 mmHg 74%
    22:00 +30°C° 0 mm 4 mps 756 mmHg 75%
    23:00 +30°C° 0 mm 4 mps 756 mmHg 76%

    24 February, Sunday

    Time Temperature Precipitation Wind Pressure Humidity
    00:00 +29°C° 0 mm 4 mps 756 mmHg 77%
    01:00 +29°C° 0 mm 4 mps 755 mmHg 79%
    02:00 +29°C° 0 mm 4 mps 754 mmHg 81%
    03:00 +29°C° 0 mm 4 mps 754 mmHg 83%
    04:00 +28°C° 0 mm 4 mps 754 mmHg 84%
    05:00 +28°C° 0 mm 3 mps 754 mmHg 84%
    06:00 +28°C° 0 mm 3 mps 754 mmHg 85%
    07:00 +29°C° 0 mm 3 mps 755 mmHg 79%
    08:00 +31°C° 0 mm 3 mps 755 mmHg 73%
    09:00 +33°C° 0 mm 4 mps 756 mmHg 67%
    10:00 +34°C° 0 mm 4 mps 756 mmHg 63%
    11:00 +35°C° 0 mm 4 mps 756 mmHg 58%
    12:00 +36°C° 0 mm 5 mps 755 mmHg 54%
    13:00 +36°C° 0.3 mm 5 mps 755 mmHg 54%
    14:00 +36°C° 0.3 mm 5 mps 754 mmHg 55%
    15:00 +35°C° 0.3 mm 5 mps 753 mmHg 56%
    16:00 +35°C° 0.2 mm 5 mps 753 mmHg 59%
    17:00 +34°C° 0.2 mm 5 mps 753 mmHg 62%
    18:00 +33°C° 0.2 mm 4 mps 753 mmHg 65%
    19:00 +32°C° 0 mm 4 mps 754 mmHg 69%
    20:00 +32°C° 0 mm 4 mps 755 mmHg 72%
    21:00 +30°C° 0 mm 4 mps 755 mmHg 75%
    22:00 +30°C° 0 mm 4 mps 755 mmHg 76%
    23:00 +30°C° 0 mm 4 mps 755 mmHg 77%

    25 February, Monday

    Time Temperature Precipitation Wind Pressure Humidity
    00:00 +29°C° 0 mm 4 mps 755 mmHg 78%
    01:00 +29°C° 0 mm 4 mps 754 mmHg 80%
    02:00 +29°C° 0 mm 4 mps 753 mmHg 81%
    03:00 +28°C° 0 mm 3 mps 753 mmHg 83%
    04:00 +28°C° 0 mm 3 mps 753 mmHg 84%
    05:00 +28°C° 0 mm 3 mps 754 mmHg 85%
    06:00 +28°C° 0 mm 4 mps 754 mmHg 86%
    07:00 +29°C° 0 mm 4 mps 755 mmHg 80%
    08:00 +30°C° 0 mm 4 mps 755 mmHg 74%
    09:00 +33°C° 0 mm 4 mps 756 mmHg 67%
    10:00 +34°C° 0.2 mm 4 mps 755 mmHg 62%
    11:00 +35°C° 0.2 mm 4 mps 755 mmHg 56%
    12:00 +37°C° 0.2 mm 4 mps 754 mmHg 50%
    13:00 +36°C° 0.7 mm 5 mps 754 mmHg 51%
    14:00 +36°C° 0.7 mm 5 mps 753 mmHg 53%
    15:00 +36°C° 0.7 mm 6 mps 753 mmHg 54%
    16:00 +35°C° 0.1 mm 6 mps 753 mmHg 59%
    17:00 +34°C° 0.1 mm 6 mps 753 mmHg 65%
    18:00 +33°C° 0.1 mm 6 mps 754 mmHg 70%
    19:00 +32°C° 0 mm 6 mps 754 mmHg 73%
    20:00 +32°C° 0 mm 6 mps 755 mmHg 76%
    21:00 +30°C° 0 mm 5 mps 755 mmHg 79%
    22:00 +30°C° 0 mm 5 mps 755 mmHg 80%
    23:00 +30°C° 0 mm 5 mps 755 mmHg 81%

    26 February, Tuesday

    Time Temperature Precipitation Wind Pressure Humidity
    00:00 +30°C° 0 mm 4 mps 755 mmHg 81%
    01:00 +29°C° 0 mm 4 mps 755 mmHg 82%
    02:00 +29°C° 0 mm 5 mps 754 mmHg 83%
    03:00 +29°C° 0 mm 5 mps 754 mmHg 84%
    04:00 +29°C° 0 mm 4 mps 754 mmHg 85%
    05:00 +29°C° 0 mm 4 mps 754 mmHg 86%
    06:00 +28°C° 0 mm 3 mps 755 mmHg 87%
    07:00 +30°C° 0 mm 3 mps 755 mmHg 81%
    08:00 +31°C° 0 mm 3 mps 756 mmHg 76%
    09:00 +33°C° 0 mm 4 mps 756 mmHg 70%
    10:00 +34°C° 0.3 mm 4 mps 756 mmHg 66%
    11:00 +34°C° 0.3 mm 4 mps 755 mmHg 62%
    12:00 +35°C° 0.3 mm 4 mps 755 mmHg 58%
    13:00 +36°C° 0 mm 4 mps 754 mmHg 56%
    14:00 +36°C° 0 mm 4 mps 753 mmHg 55%
    15:00 +37°C° 0 mm 5 mps 753 mmHg 53%
    16:00 +35°C° 0.6 mm 5 mps 753 mmHg 60%
    17:00 +34°C° 0.6 mm 5 mps 754 mmHg 67%
    18:00 +32°C° 0.6 mm 6 mps 754 mmHg 74%
    19:00 +32°C° 0 mm 5 mps 755 mmHg 76%
    20:00 +30°C° 0 mm 5 mps 755 mmHg 79%
    21:00 +30°C° 0 mm 5 mps 756 mmHg 81%
    22:00 +30°C° 0 mm 4 mps 756 mmHg 82%
    23:00 +29°C° 0 mm 4 mps 756 mmHg 83%
    Show more